Tiempo cada hora Celbowo

Hoy, 20 Abril, Martes

Tiempo Temperatura Precipitaciones Viento Presión Humedad
00:00 +8°C° 0 mm 1 mps 760 mmHg 66%
01:00 +8°C° 0 mm 1 mps 760 mmHg 66%
02:00 +8°C° 0 mm 1 mps 759 mmHg 68%
03:00 +8°C° 0 mm 1 mps 759 mmHg 69%
04:00 +7°C° 0 mm 2 mps 759 mmHg 70%
05:00 +8°C° 0 mm 2 mps 759 mmHg 69%
06:00 +9°C° 0 mm 2 mps 759 mmHg 68%
07:00 +10°C° 0 mm 2 mps 759 mmHg 67%
08:00 +12°C° 0 mm 2 mps 759 mmHg 62%
09:00 +13°C° 0 mm 2 mps 759 mmHg 56%
10:00 +15°C° 0 mm 2 mps 758 mmHg 51%
11:00 +15°C° 0 mm 2 mps 758 mmHg 50%
12:00 +14°C° 0 mm 3 mps 758 mmHg 49%
13:00 +14°C° 0 mm 3 mps 758 mmHg 49%
14:00 +14°C° 0 mm 3 mps 758 mmHg 50%
15:00 +13°C° 0 mm 3 mps 757 mmHg 52%
16:00 +13°C° 0 mm 3 mps 757 mmHg 54%
17:00 +12°C° 0 mm 3 mps 757 mmHg 62%
18:00 +10°C° 0 mm 2 mps 757 mmHg 69%
19:00 +9°C° 0 mm 2 mps 757 mmHg 77%
20:00 +8°C° 0 mm 2 mps 757 mmHg 78%
21:00 +8°C° 0 mm 1 mps 757 mmHg 78%
22:00 +8°C° 0 mm 1 mps 757 mmHg 79%
23:00 +8°C° 0 mm 1 mps 756 mmHg 79%

Mañana, 21 Abril, Miércoles

Tiempo Temperatura Precipitaciones Viento Presión Humedad
00:00 +8°C° 0 mm 1 mps 756 mmHg 78%
01:00 +7°C° 0 mm 1 mps 756 mmHg 78%
02:00 +6°C° 0 mm 2 mps 756 mmHg 80%
03:00 +6°C° 0 mm 2 mps 755 mmHg 82%
04:00 +5°C° 0 mm 2 mps 755 mmHg 84%
05:00 +7°C° 0 mm 3 mps 755 mmHg 78%
06:00 +8°C° 0 mm 3 mps 755 mmHg 72%
07:00 +9°C° 0 mm 3 mps 755 mmHg 65%
08:00 +10°C° 0 mm 3 mps 755 mmHg 59%
09:00 +12°C° 0 mm 4 mps 754 mmHg 53%
10:00 +13°C° 0 mm 4 mps 754 mmHg 48%
11:00 +14°C° 0 mm 5 mps 754 mmHg 47%
12:00 +14°C° 0 mm 5 mps 754 mmHg 46%
13:00 +14°C° 0 mm 6 mps 754 mmHg 44%
14:00 +14°C° 0 mm 6 mps 753 mmHg 48%
15:00 +12°C° 0 mm 7 mps 753 mmHg 51%
16:00 +11°C° 0 mm 7 mps 753 mmHg 54%
17:00 +10°C° 0 mm 7 mps 753 mmHg 60%
18:00 +8°C° 0 mm 7 mps 753 mmHg 66%
19:00 +5°C° 0 mm 6 mps 753 mmHg 72%
20:00 +5°C° 0 mm 6 mps 753 mmHg 71%
21:00 +4°C° 0 mm 7 mps 753 mmHg 69%
22:00 +4°C° 0 mm 7 mps 753 mmHg 68%
23:00 +3°C° 0 mm 7 mps 753 mmHg 68%

Pasado mañana, 22 Abril, Jueves

Tiempo Temperatura Precipitaciones Viento Presión Humedad
00:00 +3°C° 0 mm 7 mps 752 mmHg 67%
01:00 +1°C° 0 mm 8 mps 752 mmHg 67%
02:00 +1°C° 0 mm 8 mps 752 mmHg 74%
03:00 +1°C° 0 mm 9 mps 752 mmHg 81%
04:00 +1°C° 0 mm 10 mps 752 mmHg 88%
05:00 +1°C° 0.1 mm 10 mps 752 mmHg 82%
06:00 +2°C° 0.1 mm 11 mps 751 mmHg 76%
07:00 +3°C° 0.1 mm 11 mps 751 mmHg 70%
08:00 +3°C° 0.1 mm 11 mps 752 mmHg 63%
09:00 +3°C° 0.1 mm 11 mps 752 mmHg 57%
10:00 +5°C° 0.1 mm 10 mps 753 mmHg 50%
11:00 +5°C° 0 mm 10 mps 753 mmHg 48%
12:00 +5°C° 0 mm 10 mps 754 mmHg 46%
13:00 +5°C° 0 mm 10 mps 754 mmHg 44%
14:00 +5°C° 0 mm 10 mps 754 mmHg 46%
15:00 +3°C° 0 mm 9 mps 754 mmHg 47%
16:00 +3°C° 0 mm 9 mps 755 mmHg 49%
17:00 +4°C° 0 mm 8 mps 755 mmHg 52%
18:00 +2°C° 0 mm 8 mps 755 mmHg 55%
19:00 +3°C° 0 mm 7 mps 755 mmHg 58%
20:00 +3°C° 0 mm 7 mps 755 mmHg 59%
21:00 +3°C° 0 mm 7 mps 755 mmHg 60%
22:00 +3°C° 0 mm 6 mps 755 mmHg 60%
23:00 +3°C° 0.1 mm 7 mps 755 mmHg 62%

23 Abril, Viernes

Tiempo Temperatura Precipitaciones Viento Presión Humedad
00:00 +2°C° 0.1 mm 7 mps 756 mmHg 63%
01:00 +1°C° 0.1 mm 8 mps 756 mmHg 65%
02:00 +1°C° 0 mm 8 mps 756 mmHg 63%
03:00 +1°C° 0 mm 8 mps 756 mmHg 62%
04:00 +1°C° 0 mm 8 mps 756 mmHg 60%
05:00 +1°C° 0 mm 8 mps 756 mmHg 60%
06:00 +1°C° 0 mm 8 mps 756 mmHg 61%
07:00 +2°C° 0 mm 7 mps 757 mmHg 61%
08:00 +2°C° 0 mm 8 mps 757 mmHg 56%
09:00 +2°C° 0 mm 8 mps 757 mmHg 51%
10:00 +4°C° 0 mm 8 mps 758 mmHg 46%
11:00 +4°C° 0 mm 8 mps 758 mmHg 46%
12:00 +4°C° 0 mm 8 mps 759 mmHg 45%
13:00 +4°C° 0 mm 8 mps 759 mmHg 45%
14:00 +4°C° 0 mm 7 mps 759 mmHg 43%
15:00 +5°C° 0 mm 7 mps 760 mmHg 42%
16:00 +5°C° 0 mm 7 mps 760 mmHg 41%
17:00 +4°C° 0 mm 7 mps 760 mmHg 43%
18:00 +3°C° 0 mm 7 mps 760 mmHg 45%
19:00 +3°C° 0 mm 6 mps 760 mmHg 46%
20:00 +3°C° 0 mm 7 mps 760 mmHg 51%
21:00 +3°C° 0 mm 7 mps 760 mmHg 56%
22:00 +2°C° 0 mm 7 mps 760 mmHg 60%
23:00 +2°C° 0 mm 7 mps 760 mmHg 60%

24 Abril, Sábado

Tiempo Temperatura Precipitaciones Viento Presión Humedad
00:00 +1°C° 0 mm 8 mps 759 mmHg 60%
01:00 +1°C° 0 mm 8 mps 759 mmHg 60%
02:00 +1°C° 0 mm 8 mps 759 mmHg 65%
03:00 +2°C° 0 mm 7 mps 759 mmHg 69%
04:00 0°C° 0 mm 7 mps 759 mmHg 74%
05:00 +2°C° 0 mm 7 mps 759 mmHg 69%
06:00 +3°C° 0 mm 7 mps 759 mmHg 64%
07:00 +3°C° 0 mm 7 mps 760 mmHg 60%
08:00 +4°C° 0 mm 7 mps 760 mmHg 53%
09:00 +5°C° 0 mm 7 mps 760 mmHg 47%
10:00 +5°C° 0 mm 7 mps 760 mmHg 40%
11:00 +5°C° 0 mm 7 mps 760 mmHg 40%
12:00 +5°C° 0 mm 8 mps 760 mmHg 40%
13:00 +5°C° 0 mm 8 mps 760 mmHg 39%
14:00 +5°C° 0 mm 7 mps 760 mmHg 38%
15:00 +5°C° 0 mm 6 mps 760 mmHg 37%
16:00 +5°C° 0 mm 6 mps 760 mmHg 36%
17:00 +5°C° 0 mm 5 mps 760 mmHg 40%
18:00 +3°C° 0 mm 5 mps 760 mmHg 44%
19:00 +3°C° 0 mm 4 mps 760 mmHg 48%
20:00 +3°C° 0 mm 4 mps 760 mmHg 54%
21:00 +1°C° 0 mm 4 mps 760 mmHg 59%
22:00 +2°C° 0 mm 3 mps 759 mmHg 65%
23:00 +1°C° 0 mm 4 mps 759 mmHg 67%

25 Abril, Domingo

Tiempo Temperatura Precipitaciones Viento Presión Humedad
00:00 0°C° 0 mm 4 mps 759 mmHg 69%
01:00 0°C° 0 mm 5 mps 759 mmHg 72%
02:00 0°C° 0 mm 5 mps 759 mmHg 72%
03:00 -1°C° 0 mm 6 mps 758 mmHg 72%
04:00 -1°C° 0 mm 6 mps 758 mmHg 71%
05:00 0°C° 0 mm 7 mps 758 mmHg 68%
06:00 +2°C° 0 mm 7 mps 759 mmHg 64%
07:00 +3°C° 0 mm 7 mps 759 mmHg 60%
08:00 +3°C° 0 mm 7 mps 759 mmHg 61%
09:00 +3°C° 0 mm 7 mps 759 mmHg 62%
10:00 +3°C° 0 mm 7 mps 759 mmHg 62%
11:00 +3°C° 0.1 mm 7 mps 759 mmHg 64%
12:00 +3°C° 0.1 mm 7 mps 760 mmHg 66%
13:00 +3°C° 0.1 mm 7 mps 760 mmHg 68%
14:00 +3°C° 0.1 mm 7 mps 760 mmHg 66%
15:00 +3°C° 0.1 mm 7 mps 760 mmHg 64%
16:00 +3°C° 0.1 mm 6 mps 760 mmHg 62%
17:00 +2°C° 0 mm 5 mps 760 mmHg 65%
18:00 +2°C° 0 mm 5 mps 760 mmHg 69%
19:00 +1°C° 0 mm 4 mps 759 mmHg 73%
20:00 +1°C° 0.1 mm 4 mps 759 mmHg 75%
21:00 0°C° 0.1 mm 4 mps 759 mmHg 78%
22:00 +1°C° 0.1 mm 3 mps 759 mmHg 80%
23:00 0°C° 0.1 mm 3 mps 759 mmHg 80%
Mostrar más

Necesitamos Su Consentimiento

Meteoprog y nuestros Proveedores de Servicios pueden almacenar y acceder a sus datos personales como cookies, identificadores de dispositivo u otras tecnologías similares de su dispositivo y procesar dichos datos para personalizar contenido y anuncios, además de ofrecer funciones de redes sociales y analizar el tráfico.

  • Almacenar y/o acceder a información en su dispositivo

    Se puede almacenar o acceder a cookies, identificadores de dispositivo u otra información de su dispositivo para los fines anteriormente indicados.

  • Anuncios y contenido personalizados, medición de anuncios y contenido, percepciones del público, y desarrollo de productos

    Los anuncios y el contenido pueden personalizarse en base a su perfil. Se pueden añadir más datos para personalizar mejor los anuncios y contenidos. Se puede medir el rendimiento de los anuncios y contenidos. Se puede obtener la percepción sobre el público que ha visto los anuncios y contenidos. Dichos datos pueden usarse para desarrollar o mejorar la experiencia del usuario, sistemas y software.

Al hacer clic en ‘Estoy De Acuerdo’ usted permitirá el uso de las cookies, identificadores de dispositivo, balizas web u otras tecnologías similares indicadas. Su configuración puede cambiarse desde el navegador de su dispositivo.

Para ciertos fines, los intereses legítimos pueden ser considerados por encima del consentimiento. Puede leer más sobre ello en nuestra Política de Privacidad y Cookies.